144P/Kushida (2016)

Japanese version
Home page
Updated on January 17, 2017

---------------------------------------------------------------------

* Profile

* Pictures

* Orbital Elements

Epoch 2016 July 31.0 TT = JDT 2457600.5
T 2016 Aug. 31.07805 TT                                 MPCW
q   1.4314356            (2000.0)            P               Q
n   0.13011730     Peri.  216.15070     -0.20038524     -0.97753915
a   3.8569679      Node   245.48972     +0.91487171     -0.16286363
e   0.6288702      Incl.    4.11495     +0.35050752     -0.13376342
P   7.57
From 2668 observations 1994 Jan. 7-2016 Aug. 13, mean residual 0".5.
     Nongravitational parameters A1 = +0.65, A2 = +0.0103.

* Finding Charts

* Magnitudes Graph

        m1 =  7.5 + 5 log d +  30 log r(t - 30)  [   ,-33]  (             - 2016 July 29)
        m1 = -5.5 + 5 log d + 100 log r(t - 20)  [-33, 25]  (2016 July 29 - 2016 Sept.25)
        m1 =  6.0 + 5 log d +  25 log r          [ 25,   ]  (2016 Sept.25 -             )

---------------------------------------------------------------------

The orbital elements are published on M.P.E.C. 2016-Q04.
The charts are made with StellaNavigator Ver.8 (AstroArts).
The magnitudes graphs are made with Comet for Windows.

---------------------------------------------------------------------

Copyright(C) Seiichi Yoshida (comet@aerith.net). All rights reserved.